AFL2359 VNKT-ULLI

Flight info

Callsign AFL2359
Flight time N/A
Altitude 38000
Route DARKE1G DARKE DCT NARAN L626 HW W85 DDN DCT CHG M890 SULOM T400 LA Z305 PS A455 IMTIL/N0500F280 A455 RAMSO V848 OLDEX/K0922F280 V848 PINAX/K0900F380 L162 ODIVA DCT URL/K0698F100 A368 GUTAN/K0902F400 M161 DENUD T784 ROKUR P164 PINOK N50 GENPA GENPA1W
Aircraft B77W/H-SDE1E2E3FGHIJ2J3J4J5M1RWXY/LB1D1

Departure

Time 2026-05-05 07:01
Airport Tribhuvan International Airport (VNKT)

Arrival

Time N/A
Airport Pulkovo Airport (ULLI)
Time Latitude Longitude Altitude Speed Heading
2026-05-05 06:17 27.69810 85.35778 4448 ft 0 kts 291°
2026-05-05 06:43 27.69806 85.35789 4450 ft 2 kts 291°
2026-05-05 06:44 27.69800 85.35805 4449 ft 2 kts 291°
2026-05-05 06:44 27.69793 85.35819 4449 ft 2 kts 316°
2026-05-05 06:44 27.69780 85.35829 4448 ft 2 kts 340°
2026-05-05 06:44 27.69766 85.35832 4448 ft 2 kts
2026-05-05 06:45 27.69752 85.35830 4447 ft 0 kts 21°
2026-05-05 06:45 27.69747 85.35828 4447 ft 0 kts 22°
2026-05-05 06:52 27.69748 85.35828 4447 ft 0 kts 22°
2026-05-05 06:52 27.69749 85.35828 4447 ft 1 kts 22°
2026-05-05 06:52 27.69800 85.35855 4449 ft 12 kts 25°
2026-05-05 06:53 27.69869 85.35892 4452 ft 8 kts 25°
2026-05-05 06:53 27.69906 85.35912 4453 ft 3 kts 21°
2026-05-05 06:53 27.69913 85.35915 4454 ft 0 kts 21°
2026-05-05 06:54 27.69929 85.35922 4454 ft 5 kts 22°
2026-05-05 06:54 27.69989 85.35950 4457 ft 12 kts 21°
2026-05-05 06:55 27.70090 85.35996 4459 ft 18 kts 22°
2026-05-05 06:55 27.70219 85.36055 4460 ft 18 kts 21°
2026-05-05 06:55 27.70332 85.36105 4460 ft 16 kts 22°
2026-05-05 06:55 27.70434 85.36153 4458 ft 15 kts 21°
2026-05-05 06:56 27.70527 85.36196 4455 ft 14 kts 24°
2026-05-05 06:56 27.70543 85.36205 4454 ft 0 kts 33°
2026-05-05 06:57 27.70544 85.36206 4454 ft 0 kts 37°
2026-05-05 06:57 27.70562 85.36231 4452 ft 7 kts 59°
2026-05-05 06:57 27.70589 85.36301 4449 ft 10 kts 60°
2026-05-05 06:57 27.70646 85.36350 4446 ft 10 kts 28°
2026-05-05 06:58 27.70716 85.36385 4444 ft 11 kts 20°
2026-05-05 06:58 27.70794 85.36415 4440 ft 12 kts 20°
2026-05-05 06:58 27.70884 85.36453 4434 ft 15 kts 20°
2026-05-05 06:58 27.70883 85.36486 4435 ft 6 kts 194°
2026-05-05 06:59 27.70852 85.36469 4436 ft 2 kts 205°
2026-05-05 06:59 27.70843 85.36465 4437 ft 4 kts 203°
2026-05-05 06:59 27.70796 85.36443 4440 ft 6 kts 202°
2026-05-05 06:59 27.70793 85.36442 4440 ft 0 kts 202°
2026-05-05 07:00 27.70791 85.36440 4440 ft 7 kts 202°
2026-05-05 07:00 27.70520 85.36314 4452 ft 75 kts 200°
2026-05-05 07:00 27.69825 85.35992 4451 ft 140 kts 200°
2026-05-05 07:00 27.68708 85.35480 4400 ft 201 kts 201°
2026-05-05 07:01 27.67322 85.34858 4662 ft 225 kts 207°
2026-05-05 07:01 27.66024 85.33897 5529 ft 224 kts 220°
2026-05-05 07:01 27.65028 85.32529 6178 ft 235 kts 246°
2026-05-05 07:01 27.64757 85.30766 6704 ft 228 kts 276°
2026-05-05 07:02 27.65226 85.29105 7174 ft 223 kts 300°
2026-05-05 07:02 27.66215 85.27811 7636 ft 217 kts 322°
2026-05-05 07:02 27.67513 85.27005 8073 ft 212 kts 337°
2026-05-05 07:02 27.68937 85.26622 8493 ft 206 kts 354°
2026-05-05 07:03 27.70326 85.26733 8898 ft 197 kts 12°
2026-05-05 07:03 27.71558 85.27280 9272 ft 186 kts 29°
2026-05-05 07:03 27.72587 85.28184 9387 ft 188 kts 45°
2026-05-05 07:03 27.73363 85.29398 9470 ft 196 kts 62°
2026-05-05 07:04 27.73945 85.30823 9598 ft 205 kts 64°
2026-05-05 07:04 27.74561 85.32346 9734 ft 216 kts 63°
2026-05-05 07:04 27.75207 85.33906 9863 ft 227 kts 63°
2026-05-05 07:04 27.75753 85.35625 9956 ft 239 kts 77°
2026-05-05 07:05 27.75878 85.37540 10045 ft 251 kts 94°
2026-05-05 07:05 27.75515 85.39478 10231 ft 260 kts 110°
2026-05-05 07:05 27.74653 85.41333 10427 ft 270 kts 127°
2026-05-05 07:05 27.73341 85.42868 10627 ft 281 kts 143°
2026-05-05 07:06 27.71583 85.43986 10840 ft 292 kts 159°
2026-05-05 07:06 27.69591 85.44431 10949 ft 302 kts 180°
2026-05-05 07:06 27.67421 85.44142 11012 ft 321 kts 196°
2026-05-05 07:06 27.65330 85.43150 11049 ft 341 kts 213°
2026-05-05 07:07 27.63510 85.41345 11085 ft 359 kts 232°
2026-05-05 07:07 27.62285 85.38799 11143 ft 377 kts 252°
2026-05-05 07:07 27.61962 85.35854 11532 ft 385 kts 273°
2026-05-05 07:07 27.62620 85.32925 12150 ft 387 kts 294°
2026-05-05 07:08 27.64098 85.30408 12863 ft 388 kts 305°
2026-05-05 07:08 27.65744 85.27990 13417 ft 391 kts 305°
2026-05-05 07:08 27.67373 85.25549 13546 ft 390 kts 304°
2026-05-05 07:08 27.68982 85.23091 13543 ft 388 kts 304°
2026-05-05 07:09 27.70490 85.20565 13547 ft 387 kts 298°
2026-05-05 07:09 27.71680 85.17848 13626 ft 385 kts 292°
2026-05-05 07:09 27.72728 85.15089 13670 ft 387 kts 291°
2026-05-05 07:09 27.73776 85.12299 13660 ft 384 kts 291°
2026-05-05 07:10 27.74783 85.09535 13649 ft 383 kts 288°
2026-05-05 07:10 27.75483 85.06615 13791 ft 392 kts 279°
2026-05-05 07:10 27.75763 85.03567 14560 ft 391 kts 270°
2026-05-05 07:10 27.75630 85.00536 15424 ft 389 kts 263°
2026-05-05 07:11 27.75254 84.97494 16067 ft 394 kts 261°
2026-05-05 07:11 27.74832 84.94402 16653 ft 400 kts 261°
2026-05-05 07:11 27.74414 84.91326 17278 ft 404 kts 261°
2026-05-05 07:11 27.73988 84.88163 17941 ft 407 kts 261°
2026-05-05 07:12 27.73567 84.85024 18554 ft 410 kts 261°
2026-05-05 07:12 27.73135 84.81799 19119 ft 415 kts 261°
2026-05-05 07:12 27.72708 84.78610 19685 ft 419 kts 261°
2026-05-05 07:12 27.72270 84.75334 20255 ft 423 kts 260°
2026-05-05 07:13 27.71830 84.72047 20739 ft 428 kts 260°
2026-05-05 07:13 27.71384 84.68728 21210 ft 433 kts 260°
2026-05-05 07:13 27.70932 84.65363 21754 ft 436 kts 260°
2026-05-05 07:13 27.70477 84.61970 22306 ft 439 kts 260°
2026-05-05 07:14 27.70016 84.58544 22818 ft 442 kts 260°
2026-05-05 07:14 27.69558 84.55142 23256 ft 447 kts 260°
2026-05-05 07:14 27.69091 84.51688 23729 ft 450 kts 260°
2026-05-05 07:14 27.68619 84.48152 24256 ft 452 kts 262°
2026-05-05 07:15 27.68426 84.44626 24699 ft 456 kts 269°
2026-05-05 07:15 27.68692 84.41048 25113 ft 461 kts 277°
2026-05-05 07:15 27.69425 84.37541 25532 ft 465 kts 285°
2026-05-05 07:15 27.70487 84.34059 26076 ft 466 kts 287°
2026-05-05 07:16 27.71569 84.30617 26685 ft 465 kts 287°
2026-05-05 07:16 27.72637 84.27196 27208 ft 465 kts 286°
2026-05-05 07:16 27.73696 84.23775 27614 ft 468 kts 286°
2026-05-05 07:16 27.74775 84.20264 28034 ft 471 kts 286°
2026-05-05 07:17 27.75837 84.16792 28451 ft 473 kts 286°
2026-05-05 07:17 27.76905 84.13287 28893 ft 474 kts 286°
2026-05-05 07:17 27.77980 84.09748 29360 ft 475 kts 286°
2026-05-05 07:17 27.79040 84.06252 29882 ft 474 kts 285°
2026-05-05 07:18 27.80106 84.02733 30521 ft 470 kts 285°
2026-05-05 07:18 27.81149 83.99283 31185 ft 465 kts 285°
2026-05-05 07:18 27.82182 83.95861 31820 ft 461 kts 285°
2026-05-05 07:18 27.83219 83.92415 32034 ft 463 kts 285°
2026-05-05 07:19 27.84252 83.88979 32073 ft 463 kts 285°
2026-05-05 07:19 27.86318 83.82105 32069 ft 460 kts 285°
2026-05-05 07:20 27.88361 83.75282 32064 ft 462 kts 285°
2026-05-05 07:20 27.90411 83.68425 32066 ft 459 kts 285°
2026-05-05 07:21 27.92454 83.61571 32068 ft 460 kts 285°
2026-05-05 07:21 27.94503 83.54689 32081 ft 461 kts 285°
2026-05-05 07:22 27.96724 83.47939 32098 ft 462 kts 288°
2026-05-05 07:22 27.99086 83.41163 32106 ft 463 kts 288°
2026-05-05 07:23 28.01423 83.34410 32110 ft 461 kts 287°
2026-05-05 07:23 28.03759 83.27624 32121 ft 465 kts 287°
2026-05-05 07:24 28.06086 83.20842 32128 ft 461 kts 287°
2026-05-05 07:24 28.08413 83.14037 32169 ft 462 kts 287°
2026-05-05 07:25 28.10719 83.07281 32196 ft 460 kts 287°
2026-05-05 07:25 28.13024 83.00510 32221 ft 463 kts 287°
2026-05-05 07:26 28.15319 82.93761 32187 ft 460 kts 286°
2026-05-05 07:26 28.17625 82.86958 32157 ft 465 kts 286°
2026-05-05 07:27 28.19931 82.80151 32187 ft 462 kts 286°
2026-05-05 07:27 28.22244 82.73305 32168 ft 463 kts 287°
2026-05-05 07:28 28.24540 82.66496 32181 ft 465 kts 286°
2026-05-05 07:28 28.26846 82.59644 32203 ft 465 kts 286°
2026-05-05 07:29 28.29146 82.52798 32265 ft 465 kts 286°
2026-05-05 07:29 28.31439 82.45960 32285 ft 466 kts 286°
2026-05-05 07:30 28.33739 82.39088 32255 ft 464 kts 286°
2026-05-05 07:30 28.37195 82.28736 32237 ft 468 kts 285°
2026-05-05 07:31 28.39482 82.21870 32299 ft 468 kts 285°
2026-05-05 07:31 28.41783 82.14949 32226 ft 466 kts 285°
2026-05-05 07:32 28.44073 82.08047 32224 ft 469 kts 285°
2026-05-05 07:32 28.46376 82.01086 32193 ft 471 kts 285°
2026-05-05 07:33 28.48604 81.94350 32192 ft 469 kts 285°
2026-05-05 07:33 28.50907 81.87367 32162 ft 471 kts 285°
2026-05-05 07:34 28.53214 81.80359 32151 ft 469 kts 285°
2026-05-05 07:34 28.55509 81.73370 32135 ft 472 kts 285°
2026-05-05 07:35 28.57815 81.66338 32178 ft 469 kts 285°
2026-05-05 07:35 28.59950 81.59288 32185 ft 467 kts 281°
2026-05-05 07:36 28.61733 81.52192 32169 ft 468 kts 282°
2026-05-05 07:36 28.63527 81.45110 32148 ft 467 kts 282°
2026-05-05 07:37 28.65349 81.37958 32107 ft 468 kts 282°
2026-05-05 07:37 28.67169 81.30830 32067 ft 469 kts 281°
2026-05-05 07:38 28.68981 81.23727 31995 ft 468 kts 282°
2026-05-05 07:38 28.70790 81.16634 31984 ft 469 kts 282°
2026-05-05 07:39 28.72630 81.09403 31978 ft 468 kts 282°
2026-05-05 07:39 28.74447 81.02244 31973 ft 467 kts 282°
2026-05-05 07:40 28.76268 80.95058 31975 ft 468 kts 282°
2026-05-05 07:40 28.78077 80.87897 31979 ft 468 kts 282°
2026-05-05 07:41 28.79903 80.80656 31979 ft 467 kts 282°
2026-05-05 07:41 28.81705 80.73492 31976 ft 466 kts 282°
2026-05-05 07:42 28.83506 80.66312 31979 ft 468 kts 282°
2026-05-05 07:42 28.85312 80.59103 31995 ft 465 kts 282°
2026-05-05 07:43 28.87097 80.51949 32009 ft 467 kts 282°
2026-05-05 07:43 28.88877 80.44807 32001 ft 465 kts 282°
2026-05-05 07:44 28.90651 80.37663 31987 ft 465 kts 282°
2026-05-05 07:44 28.92416 80.30545 31974 ft 464 kts 282°
2026-05-05 07:45 28.94168 80.23457 31940 ft 464 kts 282°
2026-05-05 07:45 28.95910 80.16346 31934 ft 463 kts 280°
2026-05-05 07:46 28.96853 80.09103 31926 ft 462 kts 274°
2026-05-05 07:46 28.97601 80.01877 31916 ft 460 kts 274°
2026-05-05 07:47 28.98357 79.94515 31918 ft 461 kts 274°
2026-05-05 07:47 28.99105 79.87167 31925 ft 462 kts 274°
2026-05-05 07:48 28.99845 79.79842 31919 ft 460 kts 274°
2026-05-05 07:48 29.00579 79.72529 31926 ft 460 kts 274°
2026-05-05 07:49 29.01309 79.65211 31940 ft 460 kts 274°
2026-05-05 07:49 29.02035 79.57888 31924 ft 459 kts 275°
2026-05-05 07:50 29.03331 79.50750 31903 ft 462 kts 287°
2026-05-05 07:50 29.06216 79.44192 31904 ft 466 kts 301°
2026-05-05 07:51 29.10542 79.38638 31926 ft 473 kts 313°
2026-05-05 07:51 29.15361 79.33470 31945 ft 472 kts 312°
2026-05-05 07:52 29.20108 79.28291 31946 ft 473 kts 311°
2026-05-05 07:52 29.24818 79.23093 31949 ft 471 kts 311°
2026-05-05 07:53 29.29579 79.17802 31978 ft 471 kts 311°
2026-05-05 07:53 29.34332 79.12499 32020 ft 471 kts 311°
2026-05-05 07:54 29.39059 79.07209 32033 ft 470 kts 311°
2026-05-05 07:54 29.43795 79.01899 32012 ft 471 kts 311°
2026-05-05 07:55 29.48528 78.96583 32027 ft 469 kts 311°
2026-05-05 07:55 29.53202 78.91324 32027 ft 468 kts 311°
2026-05-05 07:56 29.57904 78.86026 32043 ft 468 kts 311°
2026-05-05 07:56 29.62586 78.80743 32038 ft 468 kts 311°
2026-05-05 07:57 29.67271 78.75451 32048 ft 466 kts 312°
2026-05-05 07:57 29.71952 78.70152 32035 ft 468 kts 311°
2026-05-05 07:58 29.76623 78.64861 32041 ft 466 kts 312°
2026-05-05 07:58 29.81313 78.59538 32055 ft 469 kts 312°
2026-05-05 07:59 29.86005 78.54208 32075 ft 468 kts 312°
2026-05-05 07:59 29.90703 78.48862 32069 ft 469 kts 312°
2026-05-05 08:00 29.95377 78.43536 32046 ft 467 kts 312°
2026-05-05 08:00 30.00046 78.38209 32048 ft 469 kts 312°
2026-05-05 08:01 30.04706 78.32884 32039 ft 468 kts 311°
2026-05-05 08:01 30.09323 78.27600 32017 ft 469 kts 311°
2026-05-05 08:02 30.13943 78.22307 32008 ft 469 kts 311°
2026-05-05 08:02 30.18245 78.16660 32038 ft 467 kts 301°
2026-05-05 08:03 30.21142 78.09993 32018 ft 464 kts 291°
2026-05-05 08:03 30.23649 78.03159 31998 ft 465 kts 291°
2026-05-05 08:04 30.26142 77.96274 32003 ft 465 kts 290°
2026-05-05 08:04 30.28648 77.89298 32013 ft 465 kts 290°
2026-05-05 08:05 30.31109 77.82412 32004 ft 463 kts 290°
2026-05-05 08:05 30.33585 77.75461 31993 ft 464 kts 290°
2026-05-05 08:06 30.36043 77.68539 31984 ft 463 kts 290°
2026-05-05 08:06 30.38508 77.61585 31981 ft 464 kts 290°
2026-05-05 08:07 30.40974 77.54612 31977 ft 465 kts 290°
2026-05-05 08:07 30.43434 77.47636 31982 ft 465 kts 291°
2026-05-05 08:08 30.45886 77.40675 31990 ft 465 kts 291°
2026-05-05 08:08 30.48320 77.33746 31999 ft 463 kts 290°
2026-05-05 08:09 30.50749 77.26822 32006 ft 464 kts 290°
2026-05-05 08:09 30.53167 77.19911 32024 ft 464 kts 290°
2026-05-05 08:10 30.55587 77.12983 32025 ft 465 kts 290°
2026-05-05 08:10 30.58023 77.05994 32022 ft 464 kts 290°
2026-05-05 08:11 30.60436 76.99059 32007 ft 464 kts 290°
2026-05-05 08:11 30.62853 76.92095 31986 ft 464 kts 290°
2026-05-05 08:12 30.65269 76.85123 31958 ft 464 kts 291°
2026-05-05 08:12 30.67663 76.78199 31965 ft 464 kts 290°
2026-05-05 08:13 30.70054 76.71260 31958 ft 463 kts 290°
2026-05-05 08:13 30.72448 76.64291 31952 ft 462 kts 290°
2026-05-05 08:14 30.74838 76.57319 31955 ft 462 kts 290°
2026-05-05 08:14 30.77212 76.50381 31944 ft 462 kts 291°
2026-05-05 08:15 30.79574 76.43462 31939 ft 461 kts 290°
2026-05-05 08:15 30.81945 76.36505 31931 ft 460 kts 291°
2026-05-05 08:16 30.84308 76.29557 32013 ft 467 kts 290°
2026-05-05 08:16 30.85489 76.26080 32376 ft 466 kts 290°
2026-05-05 08:16 30.86672 76.22591 33119 ft 457 kts 290°
2026-05-05 08:17 30.87817 76.19215 33751 ft 451 kts 290°
2026-05-05 08:17 30.88975 76.15794 33913 ft 451 kts 290°
2026-05-05 08:17 30.91260 76.09037 33932 ft 448 kts 290°
2026-05-05 08:18 30.93516 76.02350 33929 ft 447 kts 290°
2026-05-05 08:18 30.95796 75.95578 33922 ft 447 kts 290°
2026-05-05 08:19 30.98044 75.88889 33925 ft 445 kts 290°
2026-05-05 08:19 31.00303 75.82153 33914 ft 446 kts 290°
2026-05-05 08:20 31.02553 75.75427 33905 ft 447 kts 290°
2026-05-05 08:20 31.04800 75.68699 33896 ft 445 kts 290°
2026-05-05 08:21 31.07045 75.61961 33898 ft 446 kts 290°
2026-05-05 08:21 31.09283 75.55233 33890 ft 445 kts 290°
2026-05-05 08:22 31.11506 75.48476 33900 ft 446 kts 288°
2026-05-05 08:22 31.13305 75.41576 33887 ft 445 kts 287°
2026-05-05 08:23 31.15065 75.34651 33889 ft 445 kts 286°
2026-05-05 08:23 31.16812 75.27762 33896 ft 445 kts 286°
2026-05-05 08:24 31.18567 75.20824 33896 ft 444 kts 286°
2026-05-05 08:24 31.20308 75.13924 33898 ft 443 kts 286°
2026-05-05 08:25 31.22044 75.07031 33895 ft 443 kts 286°
2026-05-05 08:25 31.23766 75.00169 33892 ft 443 kts 286°
2026-05-05 08:26 31.25493 74.93278 33890 ft 444 kts 286°
2026-05-05 08:26 31.27224 74.86347 33889 ft 443 kts 286°
2026-05-05 08:27 31.28938 74.79468 33894 ft 444 kts 287°
2026-05-05 08:27 31.30660 74.72543 33899 ft 442 kts 287°
2026-05-05 08:28 31.32371 74.65643 33896 ft 443 kts 287°
2026-05-05 08:28 31.34586 74.58930 33879 ft 442 kts 298°
2026-05-05 08:29 31.38145 74.53134 33879 ft 443 kts 311°
2026-05-05 08:30 31.45292 74.46118 33911 ft 445 kts 318°
2026-05-05 08:30 31.50155 74.41556 33914 ft 446 kts 318°
2026-05-05 08:31 31.54676 74.36630 33921 ft 444 kts 312°
2026-05-05 08:31 31.58996 74.31499 33923 ft 444 kts 311°
2026-05-05 08:32 31.63327 74.26334 33921 ft 444 kts 312°
2026-05-05 08:32 31.67636 74.21179 33924 ft 443 kts 311°
2026-05-05 08:33 31.71973 74.15981 33914 ft 443 kts 311°
2026-05-05 08:33 31.76252 74.10844 33908 ft 442 kts 312°
2026-05-05 08:34 31.80548 74.05677 33910 ft 442 kts 312°
2026-05-05 08:34 31.84959 74.00613 33904 ft 444 kts 314°
2026-05-05 08:35 31.89437 73.95637 33906 ft 442 kts 314°
2026-05-05 08:35 31.93923 73.90627 33905 ft 443 kts 314°
2026-05-05 08:36 31.98360 73.85659 33910 ft 443 kts 314°
2026-05-05 08:36 32.02839 73.80630 33898 ft 442 kts 314°
2026-05-05 08:37 32.07283 73.75632 33908 ft 443 kts 314°
2026-05-05 08:37 32.11739 73.70612 33914 ft 443 kts 314°
2026-05-05 08:38 32.16187 73.65593 33912 ft 444 kts 314°
2026-05-05 08:38 32.20664 73.60535 33900 ft 444 kts 314°
2026-05-05 08:39 32.25116 73.55497 33910 ft 444 kts 314°
2026-05-05 08:39 32.29563 73.50456 33912 ft 443 kts 314°
2026-05-05 08:40 32.34006 73.45415 33904 ft 443 kts 314°
2026-05-05 08:40 32.38452 73.40361 33899 ft 444 kts 314°
2026-05-05 08:41 32.42883 73.35319 33908 ft 444 kts 314°
2026-05-05 08:41 32.47331 73.30248 33932 ft 443 kts 313°
2026-05-05 08:42 32.51786 73.25163 33925 ft 444 kts 314°
2026-05-05 08:42 32.56202 73.20116 33928 ft 443 kts 314°
2026-05-05 08:43 32.60651 73.15023 33945 ft 443 kts 314°
2026-05-05 08:43 32.65099 73.09902 33962 ft 444 kts 313°
2026-05-05 08:44 32.69447 73.04756 33970 ft 443 kts 313°
2026-05-05 08:44 32.73822 72.99569 34003 ft 443 kts 313°
2026-05-05 08:45 32.78205 72.94371 34005 ft 442 kts 313°
2026-05-05 08:45 32.82574 72.89183 34002 ft 442 kts 313°
2026-05-05 08:46 32.86984 72.83940 33996 ft 443 kts 313°
2026-05-05 08:46 32.91347 72.78745 33993 ft 444 kts 313°
2026-05-05 08:47 32.95757 72.73489 34000 ft 444 kts 313°
2026-05-05 08:47 33.00153 72.68240 33990 ft 443 kts 313°
2026-05-05 08:48 33.04525 72.63013 33992 ft 444 kts 313°
2026-05-05 08:48 33.08911 72.57775 33978 ft 442 kts 313°
2026-05-05 08:49 33.13302 72.52529 33978 ft 445 kts 313°
2026-05-05 08:49 33.17642 72.47337 33988 ft 443 kts 313°
2026-05-05 08:50 33.22002 72.42111 33986 ft 444 kts 313°
2026-05-05 08:50 33.26348 72.36894 33980 ft 442 kts 313°
2026-05-05 08:51 33.30676 72.31692 33997 ft 444 kts 313°
2026-05-05 08:51 33.35014 72.26469 33978 ft 442 kts 313°
2026-05-05 08:52 33.39362 72.21227 33975 ft 443 kts 313°
2026-05-05 08:52 33.43694 72.15996 33963 ft 443 kts 313°
2026-05-05 08:53 33.48044 72.10735 33960 ft 443 kts 313°
2026-05-05 08:53 33.52381 72.05482 33963 ft 444 kts 313°
2026-05-05 08:54 33.56776 72.00188 33964 ft 444 kts 314°
2026-05-05 08:54 33.61218 71.94943 33975 ft 443 kts 314°
2026-05-05 08:55 33.65624 71.89731 33998 ft 442 kts 314°
2026-05-05 08:55 33.70003 71.84537 34003 ft 441 kts 314°
2026-05-05 08:56 33.74400 71.79312 34034 ft 441 kts 314°
2026-05-05 08:56 33.78752 71.74133 34014 ft 442 kts 314°
2026-05-05 08:57 33.83134 71.68909 34026 ft 440 kts 314°
2026-05-05 08:57 33.87536 71.63678 33995 ft 444 kts 314°
2026-05-05 08:58 33.91976 71.58488 33989 ft 443 kts 314°
2026-05-05 08:58 33.96553 71.53467 33967 ft 443 kts 322°
2026-05-05 08:59 34.01692 71.49311 33995 ft 444 kts 319°
2026-05-05 08:59 34.05870 71.43925 34010 ft 441 kts 304°
2026-05-05 09:00 34.08611 71.37331 34045 ft 443 kts 289°
2026-05-05 09:00 34.09700 71.30027 34062 ft 447 kts 274°
2026-05-05 09:01 34.09821 71.22514 34091 ft 451 kts 274°
2026-05-05 09:01 34.10699 71.15106 34109 ft 444 kts 287°
2026-05-05 09:02 34.13102 71.08329 34128 ft 440 kts 300°
2026-05-05 09:02 34.16264 71.02000 34136 ft 440 kts 301°
2026-05-05 09:03 34.19400 70.95701 34127 ft 440 kts 301°
2026-05-05 09:03 34.22535 70.89356 34131 ft 441 kts 300°
2026-05-05 09:04 34.25663 70.82994 34118 ft 440 kts 301°
2026-05-05 09:04 34.28777 70.76639 34139 ft 441 kts 301°
2026-05-05 09:05 34.31891 70.70269 34167 ft 439 kts 301°
2026-05-05 09:05 34.34989 70.63915 34207 ft 439 kts 301°
2026-05-05 09:06 34.38164 70.57611 34191 ft 439 kts 306°
2026-05-05 09:06 34.42294 70.52238 34184 ft 439 kts 319°
2026-05-05 09:07 34.47481 70.48286 34180 ft 443 kts 333°
2026-05-05 09:07 34.53411 70.46072 34190 ft 450 kts 346°
2026-05-05 09:08 34.59708 70.45602 34321 ft 456 kts 353°
2026-05-05 09:08 34.66023 70.45325 34381 ft 453 kts 352°
2026-05-05 09:09 34.72355 70.44935 34402 ft 455 kts 352°
2026-05-05 09:09 34.78639 70.44488 34413 ft 452 kts 352°
2026-05-05 09:10 34.84950 70.44004 34433 ft 454 kts 352°
2026-05-05 09:10 34.91266 70.43503 34432 ft 455 kts 351°
2026-05-05 09:11 34.97586 70.42992 34433 ft 455 kts 352°
2026-05-05 09:11 35.03944 70.42473 34457 ft 457 kts 352°
2026-05-05 09:12 35.10177 70.41431 34504 ft 448 kts 340°
2026-05-05 09:12 35.15947 70.38596 34493 ft 445 kts 332°
2026-05-05 09:13 35.21552 70.35424 34496 ft 446 kts 332°
2026-05-05 09:13 35.27126 70.32249 34535 ft 445 kts 332°
2026-05-05 09:14 35.32711 70.29054 34529 ft 444 kts 332°
2026-05-05 09:14 35.38285 70.25857 34548 ft 443 kts 332°
2026-05-05 09:15 35.43889 70.22636 34542 ft 445 kts 332°
2026-05-05 09:15 35.49489 70.19410 34550 ft 444 kts 332°
2026-05-05 09:16 35.55101 70.16173 34583 ft 445 kts 332°
2026-05-05 09:16 35.60685 70.12946 34572 ft 444 kts 332°
2026-05-05 09:17 35.66243 70.09729 34572 ft 443 kts 332°
2026-05-05 09:17 35.71830 70.06490 34590 ft 443 kts 332°
2026-05-05 09:18 35.77408 70.03252 34601 ft 445 kts 332°
2026-05-05 09:18 35.83006 69.99995 34607 ft 443 kts 332°
2026-05-05 09:19 35.88574 69.96753 34602 ft 442 kts 332°
2026-05-05 09:19 35.91338 69.95142 34484 ft 441 kts 332°
2026-05-05 09:19 35.94135 69.93510 34632 ft 442 kts 332°
2026-05-05 09:20 35.99741 69.90232 34660 ft 445 kts 332°
2026-05-05 09:20 36.05228 69.86741 34617 ft 444 kts 330°
2026-05-05 09:21 36.10673 69.83212 34608 ft 442 kts 330°
2026-05-05 09:21 36.16126 69.79683 34612 ft 444 kts 330°
2026-05-05 09:22 36.21623 69.76127 34542 ft 443 kts 330°
2026-05-05 09:22 36.27069 69.72603 34540 ft 442 kts 330°
2026-05-05 09:23 36.32489 69.69090 34527 ft 444 kts 330°
2026-05-05 09:23 36.37972 69.65532 34473 ft 445 kts 330°
2026-05-05 09:24 36.43440 69.61979 34437 ft 441 kts 330°
2026-05-05 09:24 36.48909 69.58418 34361 ft 444 kts 330°
2026-05-05 09:25 36.54362 69.54864 34292 ft 445 kts 330°
2026-05-05 09:25 36.59847 69.51283 34227 ft 444 kts 330°
2026-05-05 09:26 36.65354 69.47681 34190 ft 447 kts 330°
2026-05-05 09:26 36.70840 69.44088 34201 ft 444 kts 330°
2026-05-05 09:27 36.76284 69.40517 34151 ft 443 kts 330°
2026-05-05 09:27 36.81736 69.36970 34140 ft 444 kts 331°
2026-05-05 09:28 36.87305 69.33522 34120 ft 447 kts 331°
2026-05-05 09:28 36.92857 69.30077 34090 ft 445 kts 331°
2026-05-05 09:29 36.98418 69.26614 34061 ft 444 kts 331°
2026-05-05 09:29 37.03924 69.23177 34052 ft 445 kts 331°
2026-05-05 09:30 37.09467 69.19710 34038 ft 445 kts 331°
2026-05-05 09:30 37.14983 69.16254 34050 ft 445 kts 331°
2026-05-05 09:31 37.20541 69.12763 34050 ft 446 kts 331°
2026-05-05 09:31 37.25899 69.08921 34061 ft 444 kts 321°
2026-05-05 09:32 37.30684 69.04076 34038 ft 444 kts 320°
2026-05-05 09:32 37.35444 68.99174 34046 ft 443 kts 320°
2026-05-05 09:33 37.40220 68.94240 34057 ft 443 kts 320°
2026-05-05 09:33 37.44975 68.89317 34066 ft 445 kts 320°
2026-05-05 09:34 37.49732 68.84383 34061 ft 444 kts 319°
2026-05-05 09:34 37.54484 68.79446 34049 ft 442 kts 320°
2026-05-05 09:35 37.59255 68.74479 34043 ft 444 kts 320°
2026-05-05 09:35 37.66375 68.67050 34043 ft 443 kts 320°
2026-05-05 09:36 37.71088 68.62122 34061 ft 444 kts 320°
2026-05-05 09:36 37.75852 68.57134 34071 ft 442 kts 320°
2026-05-05 09:37 37.80558 68.52196 34094 ft 441 kts 320°
2026-05-05 09:37 37.85288 68.47224 34119 ft 442 kts 320°
2026-05-05 09:38 37.89995 68.42270 34126 ft 441 kts 320°
2026-05-05 09:38 37.94717 68.37290 34118 ft 441 kts 320°
2026-05-05 09:39 37.99438 68.32301 34118 ft 441 kts 319°
2026-05-05 09:39 38.04343 68.27751 34087 ft 438 kts 326°
2026-05-05 09:40 38.09459 68.23568 34085 ft 440 kts 326°
2026-05-05 09:40 38.14606 68.19346 34114 ft 440 kts 326°
2026-05-05 09:41 38.19741 68.15120 34136 ft 440 kts 326°
2026-05-05 09:41 38.24868 68.10892 34175 ft 438 kts 326°
2026-05-05 09:42 38.29946 68.06694 34168 ft 440 kts 326°
2026-05-05 09:42 38.35083 68.02440 34167 ft 438 kts 326°
2026-05-05 09:43 38.40196 67.98199 34154 ft 438 kts 326°
2026-05-05 09:43 38.45308 67.93950 34178 ft 438 kts 326°
2026-05-05 09:44 38.50414 67.89699 34222 ft 438 kts 326°
2026-05-05 09:44 38.55510 67.85449 34283 ft 440 kts 326°
2026-05-05 09:45 38.60584 67.81210 34334 ft 439 kts 325°
2026-05-05 09:45 38.65687 67.76940 34330 ft 437 kts 325°
2026-05-05 09:46 38.70801 67.72653 34352 ft 441 kts 325°
2026-05-05 09:46 38.75901 67.68371 34365 ft 437 kts 325°
2026-05-05 09:47 38.80974 67.64103 34412 ft 440 kts 325°
2026-05-05 09:47 38.86102 67.59782 34404 ft 438 kts 325°
2026-05-05 09:48 38.91181 67.55496 34399 ft 439 kts 325°
2026-05-05 09:48 38.96263 67.51198 34378 ft 437 kts 325°
2026-05-05 09:49 39.01217 67.46668 34394 ft 438 kts 323°
2026-05-05 09:49 39.06120 67.42051 34369 ft 438 kts 323°
2026-05-05 09:50 39.11025 67.37443 34323 ft 437 kts 323°
2026-05-05 09:50 39.15931 67.32835 34315 ft 436 kts 322°
2026-05-05 09:51 39.20958 67.28433 34307 ft 437 kts 324°
2026-05-05 09:51 39.25975 67.24103 34316 ft 439 kts 324°
2026-05-05 09:52 39.31047 67.19690 34271 ft 438 kts 324°
2026-05-05 09:52 39.36081 67.15297 34208 ft 437 kts 324°
2026-05-05 09:53 39.41115 67.10893 34170 ft 441 kts 324°
2026-05-05 09:53 39.46167 67.06465 34157 ft 437 kts 324°
2026-05-05 09:54 39.51208 67.02037 34119 ft 437 kts 324°